ONEWEB-0204 (48225 NORAD) Tracking and Keplerian Element Data

This shows tracking and keplerian element data for the satellite.

Feedback or suggestion? Click here.




ElementValue
Catalog48225
NameONEWEB-0204
Epoch Orbit191
Epoch Day173.83334491
Epoch Year2021
RAAN294.0792
Inclination87.5731
Eccentricity0.0008987
Argument of Perigee70.1056
Mean Anonmoly299.9449
Mean Motion14.4346337
Decay Rate-0.00896579
L11 48225U 21031R 21173.83334491 -.00896579 00000-0 -28202+0 0 9996
L22 48225 87.5731 294.0792 0008987 70.1056 299.9449 14.43463370 1910

Live tracking and technical data element details for ONEWEB-0204 (NORAD 48225). ONEWEB-0204 can be tracked NOW for your location showing map with azimuth and elevation plus other details from your city location.

Track the satellite on the map from your city or location and see movement details for azimuth, elevation, latitude, longitude, range, height, and movement on the map or in text.







IsCatalogInMostPopularTable: catalog: 48225, numindb: 23
Update: records affected: 1



GetName: 48225 ONEWEB-0204

Hit Count: updated at: Thu, 24 Jun 2021 04:10:04 GMT